This demonstration page uses our WeatherBlox Daily Observations layout. Learn more.

Left ArrowRight Arrow

Hourly Observations for December 21, 2019

Temp ( °F °C ) Dew Point ( °F °C ) Humidity (%) Winds ( mph kmh ) Pressure ( in mb ) Visibility ( mi km ) Precip ( " mm )
12:17 am 00:17 Mostly Clear with Mist and Fog 45 7.2 44 6.7 97 97 Calm 30.12 1020 3 4 0.00 0.00
12:28 am 00:28 Mostly Clear with Mist and Fog 44 6.7 43 6.1 96 96 WNW 3 6 30.12 1020 2 2 0.00 0.00
12:48 am 00:48 Clear with Mist and Fog 45 7 43 6 93 93 Calm 30.11 1020 2 3 0.00 0.00
12:53 am 00:53 Clear with Mist and Fog 44 6.7 43 6.1 96 96 NNW 3 6 30.09 1019 2 3 0.00 0.00
1:53 am 01:53 Clear with Mist and Fog 43 6.1 42 5.6 97 97 Calm 30.08 1019 3 4 0.00 0.00
2:01 am 02:01 Clear with Mist and Fog 43 6.1 42 5.6 97 97 N 3 6 30.09 1019 3 5 0.00 0.00
2:17 am 02:17 Mostly Clear with Mist and Fog 43 6.1 41 5 93 93 Calm 30.09 1019 2 3 0.00 0.00
2:25 am 02:25 Clear with Mist and Fog 43 6.1 42 5.6 97 97 Calm 30.10 1019 1 2 0.00 0.00
2:30 am 02:30 Clear with Mist and Fog 43 6.1 42 5.6 97 97 W 3 6 30.10 1019 2 3 0.00 0.00
2:43 am 02:43 Mostly Clear with Mist and Fog 43 6.1 42 5.6 97 97 Calm 30.10 1019 3 4 0.00 0.00
2:53 am 02:53 Clear with Mist and Fog 43 6.1 42 5.6 97 97 Calm 30.07 1018 2 3 0.00 0.00
3:06 am 03:06 Clear with Mist and Fog 43 6.1 42 5.6 97 97 Calm 30.09 1019 3 5 0.00 0.00
3:14 am 03:14 Mostly Clear with Mist and Fog 43 6.1 42 5.6 97 97 Calm 30.09 1019 2 3 0.00 0.00
3:21 am 03:21 Mostly Clear with Mist and Fog 43 6.1 42 5.6 97 97 NNE 5 7 30.08 1018 2 2 0.00 0.00
3:31 am 03:31 Mostly Clear with Mist and Fog 43 6.1 41 5 93 93 Calm 30.08 1018 3 4 0.00 0.00
3:42 am 03:42 Mostly Clear with Mist and Fog 43 6.1 42 5.6 97 97 Calm 30.09 1019 4 6 0.00 0.00
3:53 am 03:53 Clear with Mist and Fog 43 6.1 41 5 93 93 Calm 30.06 1018 3 5 0.00 0.00
4:46 am 04:46 Clear with Mist and Fog 42 5.6 40 4.4 92 92 Calm 30.04 1017 2 3 0.00 0.00
4:53 am 04:53 Clear with Mist and Fog 42 5.6 40 4.4 92 92 Calm 30.03 1017 3 4 0.00 0.00
5:01 am 05:01 Clear with Mist and Fog 42 5.6 41 5 96 96 Calm 30.04 1017 3 5 0.00 0.00
5:17 am 05:17 Clear with Mist and Fog 42 5.6 40 4.4 92 92 WNW 3 6 30.05 1017 3 4 0.00 0.00
5:29 am 05:29 Clear with Mist and Fog 42 5.6 40 4.4 92 92 Calm 30.05 1017 3 5 0.00 0.00
5:37 am 05:37 Clear with Mist and Fog 42 5.6 40 4.4 92 92 W 3 6 30.05 1017 3 4 0.00 0.00
5:48 am 05:48 Clear with Mist and Fog 41 5 39 4 93 93 NW 3 6 30.05 1018 3 5 0.00 0.00
5:53 am 05:53 Mostly Clear with Mist and Fog 42 5.6 40 4.4 92 92 WNW 3 6 30.03 1017 4 6 0.00 0.00
6:43 am 06:43 Mostly Cloudy with Mist and Fog 42 5.6 40 4.4 92 92 Calm 30.04 1017 3 5 0.00 0.00
6:53 am 06:53 Mostly Cloudy with Mist and Fog 42 5.6 40 4.4 92 92 Calm 30.01 1016 4 6 0.00 0.00
7:11 am 07:11 Partly Cloudy with Mist and Fog 42 5.6 40 4.4 92 92 NNW 3 6 30.02 1016 4 6 0.00 0.00
7:53 am 07:53 Sunny with Mist and Fog 41 5 40 4.4 96 96 Calm 30.00 1016 3 5 0.00 0.00
8:09 am 08:09 Sunny with Mist and Fog 41 5 40 4.4 96 96 NW 3 6 30.02 1017 2 3 0.00 0.00
8:24 am 08:24 Sunny with Mist and Fog 42 5.6 41 5 96 96 Calm 30.02 1016 3 5 0.00 0.00
8:53 am 08:53 Sunny with Mist and Fog 43 6.1 41 5 93 93 Calm 30.01 1016 3 5 0.00 0.00
9:53 am 09:53 Sunny with Mist and Fog 44 6.7 42 5.6 93 93 NW 3 6 30.02 1017 4 6 0.00 0.00
10:53 am 10:53 Sunny with Mist and Fog 47 8.3 44 6.7 90 90 NNE 5 7 30.02 1017 6 10 0.00 0.00
11:53 am 11:53 Mostly Sunny 49 9.4 45 7.2 86 86 Calm 30.01 1016 8 13 0.00 0.00
12:53 pm 12:53 Sunny 50 10 46 7.8 86 86 NE 5 7 29.97 1015 8 13 0.00 0.00
1:53 pm 13:53 Sunny 51 10.6 46 7.8 83 83 Calm 29.94 1014 8 13 0.00 0.00
2:53 pm 14:53 Sunny 52 11.1 44 6.7 75 75 Calm 29.91 1013 8 13 0.00 0.00
3:53 pm 15:53 Sunny 51 10.6 44 6.7 77 77 Calm 29.90 1012 7 11 0.00 0.00
4:53 pm 16:53 Clear with Mist and Fog 48 8.9 45 7.2 89 89 Calm 29.89 1012 6 10 0.00 0.00
5:53 pm 17:53 Clear 47 8.3 44 6.7 90 90 ENE 3 6 29.88 1012 7 11 0.00 0.00
6:53 pm 18:53 Clear with Mist and Fog 45 7.2 42 5.6 90 90 W 3 6 29.88 1012 4 6 0.00 0.00
7:53 pm 19:53 Clear with Mist and Fog 45 7.2 42 5.6 90 90 Calm 29.85 1011 5 8 0.00 0.00
8:53 pm 20:53 Clear 44 6.7 42 5.6 93 93 NNW 3 6 29.83 1010 7 11 0.00 0.00
9:53 pm 21:53 Clear with Mist and Fog 44 6.7 42 5.6 93 93 E 3 6 29.82 1010 5 8 0.00 0.00
10:53 pm 22:53 Clear with Mist and Fog 42 5.6 41 5 96 96 N 3 6 29.81 1010 4 6 0.00 0.00
11:35 pm 23:35 Clear with Mist and Fog 41 5 40 4.4 96 96 Calm 29.82 1010 3 4 0.00 0.00
11:53 pm 23:53 Clear with Mist and Fog 41 5 39 3.9 93 93 Calm 29.79 1009 2 3 0.00 0.00

Powered by AerisWeather